User: anonymous   Login
Location: Frydek-Mistek
(49.6830°N, 18.3330°E)
Time: 19:19:07
(UTC+02:00)
Language:

Courier 1B Rocket - Orbit

View from above orbital plane
View from above orbital plane
View from above satellite
View from above satellite

Ground track
Ground track

The orbit data is extracted from the following two-line orbital elements,

1    59U 60013B   18170.92243173 +.00000093 +00000-0 +40412-5 0  9990
2    59 028.2510 000.4581 0189298 291.4745 066.5713 13.52961096847864
Epoch (UTC): 19 June 2018 22:08:18
Eccentricity: 0.0189298
inclination: 28.2510°
perigee height: 920 km
apogee height: 1202 km
right ascension of ascending node: 0.4581°
argument of perigee: 291.4745°
revolutions per day: 13.52961096
mean anomaly at epoch: 66.5713°
orbit number at epoch: 84786

The dashed part of the orbit path shows where the satellite is in the earth's shadow,  

DLR